Location: Pallagorio
(39.3000°N, 16.9000°E)
Time: 02:11:28
(UTC+00:00)

Okean-O - Pass Details

Date: 24 January 2021
Orbit: 638 x 641 km, 98.2° (Epoch: 08 March)

Event Time Altitude Azimuth Distance (km) Brightness Sun altitude
Rises 18:00:59 0° 180° (S) 2,930 6.1 -22.6°
Reaches altitude 10° 18:03:15 10° 187° (S) 2,026 5.3 -23.1°
Maximum altitude 18:07:30 46° 261° (W) 862 3.6 -23.9°
Drops below altitude 10° 18:11:47 10° 335° (NNW) 2,041 5.4 -24.7°
Sets 18:14:04 0° 341° (NNW) 2,955 6.2 -25.1°
